TimeCDT,TemperatureF,Dew PointF,Humidity,Sea Level PressureIn,VisibilityMPH,Wind Direction,Wind SpeedMPH,Gust SpeedMPH,PrecipitationIn,Events,Conditions,WindDirDegrees,DateUTC
12:15 AM,67.5,66.2,96,29.98,7.0,Calm,Calm,-,N/A,,Clear,0,2013-08-03 05:15:00
12:35 AM,68.5,67.1,95,29.97,10.0,Calm,Calm,-,N/A,,Clear,0,2013-08-03 05:35:00
12:55 AM,68.9,67.3,95,29.97,10.0,Calm,Calm,-,N/A,,Clear,0,2013-08-03 05:55:00
1:15 AM,68.9,67.5,95,29.97,7.0,Calm,Calm,-,N/A,,Clear,0,2013-08-03 06:15:00
1:35 AM,68.9,67.6,96,29.97,7.0,Calm,Calm,-,N/A,,Clear,0,2013-08-03 06:35:00
1:55 AM,69.4,68.0,95,29.97,10.0,Calm,Calm,-,N/A,,Clear,0,2013-08-03 06:55:00
2:15 AM,69.4,68.0,95,29.96,7.0,Calm,Calm,-,N/A,,Clear,0,2013-08-03 07:15:00
2:35 AM,69.6,68.2,95,29.97,7.0,Calm,Calm,-,N/A,,Clear,0,2013-08-03 07:35:00
2:55 AM,69.1,68.0,96,29.95,5.0,Calm,Calm,-,N/A,,Clear,0,2013-08-03 07:55:00
3:15 AM,69.1,68.2,97,29.95,5.0,Calm,Calm,-,N/A,,Clear,0,2013-08-03 08:15:00
3:35 AM,69.6,68.4,96,29.95,5.0,Calm,Calm,-,N/A,,Clear,0,2013-08-03 08:35:00
3:55 AM,69.4,68.5,97,29.95,5.0,Calm,Calm,-,N/A,,Clear,0,2013-08-03 08:55:00
4:15 AM,69.3,68.0,96,29.95,7.0,Calm,Calm,-,N/A,,Clear,0,2013-08-03 09:15:00
4:35 AM,69.4,68.2,96,29.96,7.0,Calm,Calm,-,N/A,,Clear,0,2013-08-03 09:35:00
4:55 AM,69.3,67.8,95,29.96,10.0,Calm,Calm,-,N/A,,Clear,0,2013-08-03 09:55:00
5:15 AM,68.9,67.5,95,29.96,10.0,Calm,Calm,-,N/A,,Clear,0,2013-08-03 10:15:00
5:35 AM,68.0,67.1,97,29.97,7.0,Calm,Calm,-,N/A,,Clear,0,2013-08-03 10:35:00
5:55 AM,68.0,67.1,97,29.97,7.0,Calm,Calm,-,N/A,,Clear,0,2013-08-03 10:55:00
6:15 AM,68.0,67.1,97,29.97,7.0,Calm,Calm,-,N/A,,Clear,0,2013-08-03 11:15:00
6:35 AM,68.9,67.3,95,29.97,10.0,Calm,Calm,-,N/A,,Clear,0,2013-08-03 11:35:00
6:55 AM,68.9,67.5,95,29.98,5.0,Calm,Calm,-,N/A,,Clear,0,2013-08-03 11:55:00
7:15 AM,69.6,68.0,95,29.98,7.0,NNE,3.5,-,N/A,,Clear,20,2013-08-03 12:15:00
7:35 AM,69.8,68.0,94,29.99,10.0,Calm,Calm,-,N/A,,Clear,0,2013-08-03 12:35:00
7:55 AM,70.2,67.6,92,30.00,10.0,Calm,Calm,-,N/A,,Clear,0,2013-08-03 12:55:00
8:15 AM,70.9,67.5,89,29.99,10.0,NE,3.5,-,N/A,,Clear,50,2013-08-03 13:15:00
8:35 AM,72.1,67.5,85,30.01,10.0,ENE,3.5,-,N/A,,Clear,70,2013-08-03 13:35:00
8:55 AM,72.7,67.6,84,30.00,10.0,NE,4.6,-,N/A,,Clear,40,2013-08-03 13:55:00
9:15 AM,74.1,68.2,82,30.01,10.0,NE,5.8,-,N/A,,Clear,50,2013-08-03 14:15:00
9:35 AM,74.8,68.7,81,30.01,10.0,NNE,3.5,-,N/A,,Clear,20,2013-08-03 14:35:00
9:55 AM,75.7,69.1,80,30.02,10.0,NE,3.5,-,N/A,,Clear,50,2013-08-03 14:55:00
10:15 AM,75.9,68.4,77,30.02,10.0,North,3.5,-,N/A,,Clear,350,2013-08-03 15:15:00
10:35 AM,76.8,68.5,75,30.02,10.0,Calm,Calm,-,N/A,,Clear,0,2013-08-03 15:35:00
10:55 AM,77.2,68.7,75,30.03,10.0,Calm,Calm,-,N/A,,Clear,0,2013-08-03 15:55:00
11:15 AM,79.0,69.6,73,30.03,10.0,North,3.5,-,N/A,,Clear,10,2013-08-03 16:15:00
11:35 AM,79.0,70.3,75,30.03,10.0,NNW,4.6,-,N/A,,Clear,330,2013-08-03 16:35:00
11:55 AM,79.2,70.3,74,30.04,10.0,WNW,5.8,-,N/A,,Clear,300,2013-08-03 16:55:00
12:15 PM,79.3,69.8,72,30.04,10.0,West,6.9,-,N/A,,Clear,280,2013-08-03 17:15:00
12:35 PM,79.5,70.5,74,30.04,10.0,WNW,5.8,-,N/A,,Clear,290,2013-08-03 17:35:00
12:55 PM,79.5,70.2,73,30.04,10.0,WNW,6.9,-,N/A,,Clear,300,2013-08-03 17:55:00
1:15 PM,81.5,70.2,68,30.04,10.0,NNW,6.9,-,N/A,,Clear,330,2013-08-03 18:15:00
1:35 PM,81.1,69.6,68,30.04,10.0,WNW,6.9,-,N/A,,Clear,290,2013-08-03 18:35:00
1:55 PM,82.2,70.2,67,30.03,10.0,WNW,8.1,-,N/A,,Clear,300,2013-08-03 18:55:00
2:15 PM,82.8,68.7,62,30.03,10.0,NW,4.6,-,N/A,,Clear,310,2013-08-03 19:15:00
2:35 PM,83.3,69.1,62,30.02,10.0,North,8.1,-,N/A,,Clear,350,2013-08-03 19:35:00
2:55 PM,83.3,69.6,63,30.02,10.0,NW,9.2,-,N/A,,Clear,320,2013-08-03 19:55:00
3:15 PM,81.5,68.5,65,30.02,10.0,NNW,8.1,-,N/A,,Clear,340,2013-08-03 20:15:00
3:35 PM,83.5,69.8,63,30.03,10.0,NW,8.1,-,N/A,,Clear,320,2013-08-03 20:35:00
3:55 PM,83.3,68.0,60,30.03,10.0,North,6.9,-,N/A,,Clear,350,2013-08-03 20:55:00
4:15 PM,83.7,66.4,56,30.02,10.0,North,9.2,-,N/A,,Clear,350,2013-08-03 21:15:00
4:35 PM,84.0,66.4,55,30.02,10.0,NNW,8.1,-,N/A,,Clear,340,2013-08-03 21:35:00
4:55 PM,83.7,66.6,56,30.02,10.0,North,9.2,-,N/A,,Clear,350,2013-08-03 21:55:00
5:15 PM,83.1,66.9,58,30.03,10.0,North,9.2,-,N/A,,Clear,350,2013-08-03 22:15:00
5:35 PM,82.6,65.1,55,30.03,10.0,North,8.1,-,N/A,,Clear,360,2013-08-03 22:35:00
5:55 PM,80.4,65.8,61,30.03,10.0,North,6.9,-,N/A,,Clear,360,2013-08-03 22:55:00
6:15 PM,81.0,66.2,61,30.03,10.0,North,6.9,-,N/A,,Clear,360,2013-08-03 23:15:00
6:35 PM,79.2,65.5,63,30.03,10.0,North,6.9,-,N/A,,Clear,360,2013-08-03 23:35:00
6:55 PM,79.2,65.7,63,30.03,10.0,North,4.6,-,N/A,,Clear,350,2013-08-03 23:55:00
7:15 PM,78.8,65.3,63,30.04,10.0,North,4.6,-,N/A,,Clear,350,2013-08-04 00:15:00
7:35 PM,76.6,65.7,69,30.04,10.0,North,3.5,-,N/A,,Clear,350,2013-08-04 00:35:00
7:55 PM,75.7,66.2,72,30.05,10.0,North,4.6,-,N/A,,Clear,350,2013-08-04 00:55:00
8:15 PM,73.9,65.7,75,30.05,10.0,North,3.5,-,N/A,,Clear,350,2013-08-04 01:15:00
8:35 PM,72.7,65.3,78,30.06,10.0,NNW,3.5,-,N/A,,Clear,340,2013-08-04 01:35:00
8:55 PM,72.9,63.5,72,30.07,10.0,North,5.8,-,N/A,,Clear,350,2013-08-04 01:55:00
9:15 PM,72.5,62.8,71,30.08,10.0,North,5.8,-,N/A,,Clear,360,2013-08-04 02:15:00
9:35 PM,70.9,63.5,77,30.09,10.0,North,4.6,-,N/A,,Clear,350,2013-08-04 02:35:00
9:55 PM,70.2,63.1,78,30.09,10.0,North,3.5,-,N/A,,Clear,360,2013-08-04 02:55:00
10:15 PM,69.1,63.5,82,30.09,10.0,Calm,Calm,-,N/A,,Clear,0,2013-08-04 03:15:00
10:35 PM,68.9,63.9,84,30.10,10.0,NNW,3.5,-,N/A,,Clear,340,2013-08-04 03:35:00
11:11 PM,66.2,62.6,88,30.10,10.0,Calm,Calm,-,N/A,,Clear,0,2013-08-04 04:11:00
11:33 PM,66.2,62.6,88,30.10,10.0,NNW,4.6,-,N/A,,Clear,340,2013-08-04 04:33:00
11:51 PM,66.2,62.6,88,30.10,10.0,North,4.6,-,N/A,,Clear,350,2013-08-04 04:51:00
11:55 PM,67.1,62.4,85,30.10,10.0,North,4.6,-,N/A,,Clear,350,2013-08-04 04:55:00